Location: Waco, TX
(31.5481°N, 97.1672°W)
Time: 17:41:39
(UTC-06:00)

Envisat - Visible Passes

Search period start: 17 January 2018 00:00
Search period end: 27 January 2018 00:00
Orbit: 764 x 766 km, 98.2° (Epoch: 17 January)

Date Brightness Start Highest point End Pass type
(mag) Time Alt. Az. Time Alt. Az. Time Alt. Az.
24 Jan 5.4 20:19:27 12° NNW 20:19:27 12° NNW 20:19:49 10° NNW visible
25 Jan 5.0 19:42:01 14° N 19:42:01 14° N 19:42:48 10° N visible
26 Jan 5.0 19:04:34 11° NNE 19:04:34 11° NNE 19:04:46 10° NNE visible
26 Jan 5.5 20:44:45 12° NNW 20:44:45 12° NNW 20:45:13 10° NNW visible
